This demonstration page uses our WeatherBlox Daily Observations layout. Learn more.

Left ArrowRight Arrow

39.51506, -84.39828

Hourly Observations for April 8, 2020

Temp ( °F °C ) Dew Point ( °F °C ) Humidity (%) Winds ( mph kmh ) Pressure ( in mb ) Visibility ( mi km ) Precip ( " mm )
12:15 am 00:15 Clear 65 18.5 58 14.7 79 79 SW 12 19 29.67 1005 10 16 N/A
12:35 am 00:35 Clear 67 19.6 59 15 75 75 SW 9 15 29.67 1005 10 16 N/A
12:55 am 00:55 Clear 67 19.4 59 15.2 77 77 SW 12 19 29.67 1005 10 16 N/A
1:15 am 01:15 Clear 67 19.3 60 15.6 79 79 SW 12 19 29.67 1005 10 16 N/A
1:35 am 01:35 Clear 68 19.9 61 16.1 79 79 WSW 12 19 29.67 1005 10 16 N/A
1:55 am 01:55 Clear 69 20.4 62 16.6 79 79 SW 14 22 29.65 1004 10 16 N/A
2:15 am 02:15 Mostly Cloudy 69 20.7 62 16.7 78 78 WSW 12 19 29.67 1005 10 16 N/A
2:35 am 02:35 Mostly Cloudy 69 20.8 62 16.6 77 77 SW 13 20 29.65 1004 10 16 N/A
2:55 am 02:55 Mostly Cloudy 70 20.9 62 16.5 76 76 WSW 13 20 29.66 1004 10 16 N/A
3:15 am 03:15 Cloudy 70 21.1 62 16.5 75 75 WSW 13 20 29.66 1004 10 16 N/A
3:35 am 03:35 Cloudy 70 21 62 16.4 75 75 SW 15 24 29.65 1004 10 16 N/A
3:55 am 03:55 Cloudy 70 21 62 16.4 75 75 WSW 15 24 29.64 1004 10 16 N/A
4:15 am 04:15 Cloudy 70 20.9 62 16.5 76 76 WSW 12 19 29.65 1004 10 16 N/A
4:35 am 04:35 Cloudy 70 20.9 62 16.5 76 76 WSW 12 19 29.65 1004 10 16 N/A
4:55 am 04:55 Cloudy 69 20.7 62 16.6 77 77 WSW 12 19 29.65 1004 10 16 N/A
5:15 am 05:15 Cloudy 69 20.7 62 16.6 77 77 W 8 13 29.65 1004 10 16 N/A
5:35 am 05:35 Cloudy 69 20.5 62 16.6 78 78 WSW 8 13 29.65 1004 10 16 N/A
5:55 am 05:55 Cloudy 69 20.4 62 16.7 79 79 W 10 17 29.66 1005 10 16 N/A
6:15 am 06:15 Mostly Cloudy 68 20.1 62 16.7 81 81 W 9 15 29.67 1005 10 16 N/A
6:35 am 06:35 Partly Cloudy 67 19.5 62 16.7 84 84 W 8 13 29.68 1005 10 16 N/A
6:55 am 06:55 Mostly Cloudy 67 19.5 62 16.8 84 84 W 8 13 29.69 1005 10 16 N/A
7:15 am 07:15 Partly Cloudy 66 19.1 62 16.8 87 87 W 8 13 29.70 1006 10 16 N/A
7:35 am 07:35 Mostly Cloudy 66 18.9 62 16.9 88 88 NNW 6 9 29.70 1006 10 16 N/A
7:55 am 07:55 Mostly Cloudy 66 19.1 61 15.9 82 82 N 7 11 29.71 1006 10 16 N/A
8:15 am 08:15 Sunny 66 18.7 60 15.6 82 82 N N/A 29.72 1006 10 16 N/A
8:35 am 08:35 Partly Cloudy 67 19.3 60 15.4 78 78 N N/A 29.72 1006 10 16 N/A
8:55 am 08:55 Mostly Cloudy 67 19.3 60 15.8 80 80 N N/A 29.72 1006 10 16 N/A
9:15 am 09:15 Partly Cloudy 67 19.7 59 15.1 75 75 N N/A 29.73 1007 10 16 N/A
9:35 am 09:35 Partly Cloudy 68 20.2 59 14.9 72 72 N N/A 29.71 1006 N/A N/A
9:55 am 09:55 Mostly Cloudy 69 20.5 59 15.2 72 72 WNW 6 9 29.72 1007 N/A N/A
10:15 am 10:15 Partly Cloudy 70 21.3 60 15.4 69 69 NW 7 11 29.72 1006 N/A N/A
10:35 am 10:35 Sunny 71 21.6 59 14.9 66 66 W 8 13 29.73 1007 N/A N/A
10:55 am 10:55 Cloudy 71 21.5 59 15.2 67 67 NW 7 11 29.74 1007 N/A N/A
11:15 am 11:15 Partly Cloudy 71 21.7 59 15.1 66 66 NW 5 7 29.74 1007 10 16 N/A
11:35 am 11:35 Mostly Cloudy 72 22.1 59 15 64 64 NNW 6 9 29.74 1007 N/A N/A
11:55 am 11:55 Partly Cloudy 73 23 59 15 61 61 WSW 7 11 29.74 1007 N/A N/A
12:15 pm 12:15 Partly Cloudy 73 23 59 15 61 61 NW 8 13 29.74 1007 N/A N/A
12:35 pm 12:35 Partly Cloudy 74 23.6 60 15.3 60 60 W 9 15 29.74 1007 N/A N/A
12:55 pm 12:55 Partly Cloudy 73 22.9 58 14.6 60 60 NW 8 13 29.73 1007 N/A N/A
1:15 pm 13:15 Sunny 74 23.2 60 15.6 62 62 N 14 22 29.72 1006 N/A N/A
1:35 pm 13:35 Sunny 74 23.6 60 15.4 60 60 NW 7 11 29.72 1006 10 16 N/A
1:55 pm 13:55 Partly Cloudy 74 23.5 56 13.5 54 54 W 8 13 29.71 1006 10 16 N/A
2:15 pm 14:15 Partly Cloudy 75 23.7 57 14 55 55 NNW 10 17 29.70 1006 10 16 N/A
2:35 pm 14:35 Partly Cloudy 76 24.4 54 12.1 46 46 NNW 5 7 29.69 1006 10 16 N/A
2:55 pm 14:55 Partly Cloudy 76 24.4 52 11.2 44 44 N 9 15 29.68 1005 10 16 N/A
3:15 pm 15:15 Sunny 77 25.2 50 9.9 38 38 NNW 9 15 29.68 1005 10 16 N/A
3:35 pm 15:35 Sunny 77 24.9 47 8.4 35 35 N 9 15 29.67 1005 10 16 N/A
3:55 pm 15:55 Sunny 77 24.9 48 8.8 36 36 NNW 8 13 29.67 1005 10 16 N/A
4:15 pm 16:15 Sunny 77 25.1 49 9.2 37 37 NW 6 9 29.66 1005 10 16 N/A
4:35 pm 16:35 Sunny 78 25.3 48 8.7 35 35 WNW 7 11 29.66 1004 10 16 N/A
4:55 pm 16:55 Sunny 78 25.4 49 9.5 37 37 NW 5 7 29.64 1004 10 16 N/A
5:15 pm 17:15 Sunny 78 25.4 46 8 33 33 NW 10 17 29.63 1003 10 16 N/A
5:35 pm 17:35 Sunny 77 25.1 46 7.7 33 33 N N/A 29.62 1003 10 16 N/A
5:55 pm 17:55 Sunny 78 25.3 45 7.3 32 32 W 5 7 29.62 1003 10 16 N/A
6:15 pm 18:15 Sunny 78 25.4 46 7.5 32 32 NW 5 7 29.61 1003 10 16 N/A
6:35 pm 18:35 Sunny 78 25.3 45 7.2 32 32 SW 5 7 29.60 1002 10 16 N/A
6:55 pm 18:55 Sunny 77 24.8 48 8.7 36 36 N N/A 29.59 1002 10 16 N/A
7:15 pm 19:15 Sunny 76 24.7 46 7.6 34 34 N N/A 29.58 1002 10 16 N/A
7:35 pm 19:35 Sunny 76 24.5 43 6.3 31 31 N N/A 29.56 1001 10 16 N/A
7:55 pm 19:55 Sunny 75 23.7 44 6.8 34 34 N N/A 29.55 1001 10 16 N/A
8:15 pm 20:15 Clear 68 19.9 52 10.9 56 56 N N/A 29.55 1001 10 16 N/A
8:35 pm 20:35 Clear 63 17.1 53 11.8 71 71 N N/A 29.55 1001 10 16 N/A
8:55 pm 20:55 Clear 63 17 53 11.8 72 72 E 3 6 29.53 1000 7 11 N/A
9:15 pm 21:15 Clear 71 21.4 48 9.1 46 46 ESE 7 11 29.51 999 10 16 N/A
9:35 pm 21:35 Clear 71 21.4 48 8.9 45 45 SE 7 11 29.51 999 10 16 N/A
9:55 pm 21:55 Mostly Cloudy with Nearby Thunderstorms 70 21.3 47 8.6 44 44 ESE 8 13 29.49 999 10 16 N/A
10:15 pm 22:15 Cloudy with Nearby Thunderstorms 70 21.1 48 8.7 45 45 S 6 9 29.50 999 7 11 N/A
10:35 pm 22:35 Cloudy with Strong Thunderstorms 61 16 55 13 83 83 WNW 23 37 29.60 1003 4 6 N/A
10:55 pm 22:55 Cloudy with Strong Thunderstorms 59 14.8 55 13 89 89 NNW 24 39 29.64 1004 7 11 N/A
11:15 pm 23:15 Cloudy with Nearby Thunderstorms 58 14.4 55 12.8 90 90 N 14 22 29.63 1003 10 16 N/A
11:35 pm 23:35 Cloudy with Nearby Thunderstorms 57 14 55 12.6 91 91 ENE 10 17 29.59 1002 7 11 N/A
11:55 pm 23:55 Cloudy 57 13.9 55 12.5 91 91 N N/A 29.55 1001 10 16 N/A

Powered by AerisWeather